COSMOS 2251 DEB, 33900

Orbit data source: Space-Track

COSMOS 2251 DEB, 33900 is space debris in LEO originally from a launch on Wed, 16 Jun 1993 UTC launched from the Plesetsk Missile And Space Complex (PKMTR). The debris from Iridium 33, an American commercial communications satellite, has been tracked extensively since its accidental collision with the defunct Russian satellite Cosmos 2251 in 2009. This event, occurring at high speed in low Earth orbit (LEO), generated thousands of pieces of space debris, significantly increasing the risk of further collisions. The Iridium 33 debris cloud has impacted space traffic management and orbital debris mitigation strategies, making it a subject of ongoing study in space situational awareness.

Loading next visibility...
Identifier
33900, 1993-036DD
Orbit
LEO
Country
Flag of CISCIS
Related business
Manufacturer
Unknown
Mission
Spacecraft
Bus & Motor
Unknown
Mass
Unknown
Launch date (UTC)
1993-06-16 (33 years ago)
Launch vehicle
Unknown
Launch site
Plesetsk Missile And Space Complex (PKMTR)
Object type
Payload
Rocket body
Debris
Shape & HBR
Unknown shape, 0.2 m
Radar Cross Section
Small (<0.1 m²)

Expand to show TLE details & history
Last TLE update: 16 hours ago

TLE from 16 hours ago
0 COSMOS 2251 DEB
1 33900U 93036DD  26106.41799833  .00000855  00000-0  18596-3 0  9995
2 33900  74.0156 122.2054 0049467 242.5373 184.8972 14.58908934908548
Epoch: 2026-04-16T10:01Z
TLE epoch observation values (Epoch: 2026-04-16T10:01:55.055Z)
Latitude
62.6546°
Longitude
160.5925°
Altitude
741.976 km
Speed
7.471 km/s
True Right ascension
10h 22m 33s
True Declination
62° 30' 49"
Sunlit
Object was in daylight at epoch
Visualization orbit readout
Latitude
Unknown
Longitude
Unknown
Altitude
Unknown
Speed
Unknown
Apparent Right ascension
Unknown
Apparent Declination
Unknown
Sunlit
N/A
Visualization observer readout
Local Sidereal Time
08:36:05
Azimuth
Unknown
Elevation
Unknown
Doppler factor
Unknown
Orbital elements
Apogee altitude
729.285 km
Perigee altitude
659.314 km
Semi-major axis
7,072.437 km
Eccentricity
0.00495
Inclination
74.0156°
RAAN
122.2054°
Arg. of periapsis
242.5373°
True anomaly
184.84911°
Mean anomaly
184.8972°
Eccentric anomaly
184.87312°
Mean motion
3.64913 °/min
Orbital period
98.65 mins
BSTAR
0.00018596
Loading maneuver chart data...
Computing Atmospheric mass density...
Loading historical data...
Loading historical data...
Loading historical data...
Loading historical data...
Loading historical data...
Loading historical data...
Loading historical data...

Documentation

Showing up to 5 results
|